Location: Sternwarte_Laufen
(47.9344°N, 12.9346°E)
Time: 01:20:49
(UTC+02:00)

Envisat - Pass Details

Date: 12 May 2026
Orbit: 761 x 763 km, 98.4° (Epoch: 7 June)

Event Time Altitude Azimuth Distance (km) Brightness Sun altitude
Rises 04:26:32 0° 9° (N) 3,236 7.1 -10.0°
Reaches altitude 10° 04:28:54 10° 5° (N) 2,306 6.2 -9.8°
Maximum altitude 04:33:47 50° 291° (WNW) 966 3.4 -9.1°
Drops below altitude 10° 04:38:38 10° 217° (SW) 2,289 4.8 -8.5°
Enters shadow 04:38:42 10° 217° (SW) 2,315 4.9 -8.5°
